SCP
0 0 0 0 0 0 0 0 0 0 0 0 0 0 0 0 0 0 0 0 0 0 0 0 0 0 0 0 0 0 0 0 0 0 0 0 0 0 0 0 0 0 0
0 0 0 0 0 0 0 0 0 0 0 0 0 0 0 0 0 0 0 0 0 0 0 0 0 0 0 0 0 0 0 0 0 0 0 0 0 0 0 0 0 0 0
0 0 0 0 0 0 0 0 0 0 0 0 0 0 0 0 0 0 0 0 0 0 0 0 0 0 0 0 0 0 0 0 0 0 0 0 0 0 0 0 0 0 0
0 0 0 0 0 0 0 0 0 0 0 0 0 0 0 0 0 0 0 0 0 0 0 0 0 0 0 0 0 0 0 0 0 0 0 0 0 0 0 0 0 0 0
0 0 0 0 0 0 0 0 0 0 0 0 0 0 0 0 0 0 0 0 0 0 0 0 0 0 0 0 0 0 0 0 0 0 0 0 0 0 0 0 0 0 0
0 0 0 0 0 0 0 0 0 0 0 0 0 0 0 0 0 0 0 0 0 0 0 0 0 0 0 0 0 0 0 0 0 0 0 0 0 0 0 0 0 0 0
0 0 0 0 0 0 0 0 0 0 0 0 0 0 0 0 0 0 0 0 0 0 0 0 0 0 0 0 0 0 0 0 0 0 0 0 0 0 0 0 0 0 0
0 0 0 0 0 0 0 0 0 0 0 0 0 0 0 0 0 0 0 0 0 0 0 0 0 0 0 0 0 0 0 0 0 0 0 0 0 0 0 0 0 0 0
0 0 0 0 0 0 0 0 0 0 0 0 0 0 0 0 0 0 0 0 0 0 0 0 0 0 0 0 0 0 0 0 0 0 0 0 0 0 0 0 0 0 0
0 0 0 0 0 0 0 0 0 0 0 0 0 0 0 0 0 0 0 0 0 0 0 0 0 0 0 0 0 0 0 0 0 0 0 0 0 0 0 0 0 0 0
0 0 0 0 0 0 0 0 0 0 0 0 0 0 0 0 0 0 0 0 0 0 0 0 0 0 0 0 0 0 0 0 0 0 0 0 0 0 0 0 0 0 0
0 0 0 0 0 0 0 0 0 0 0 0 0 0 0 0 0 0 0 0 0 0 0 0 0 0 0 0 0 0 0 0 0 0 0 0 0 0 0 0 0 0 0
0 0 0 0 0 0 0 0 0 0 0 0 0 0 0 0 0 0 0 0 0 0 0 0 0 0 0 0 0 0 0 0 0 0 0 0 0 0 0 0 0 0 0
0 0 0 0 0 0 0 0 0 0 0 0 0 0 0 0 0 0 0 0 0 0 0 0 0 0 0 0 0 0 0 0 0 0 0 0 0 0 0 0 0 0 0
0 0 0 0 0 0 0 0 0 0 0 0 0 0 0 0 0 0 0 0 0 0 0 0 0 0 0 0 0 0 0 0 0 0 0 0 0 0 0 0 0 0 0
0 0 0 0 0 0 0 0 0 0 0 0 0 0 0 0 0 0 0 0 0 0 0 0 0 0 0 0 0 0 0 0 0 0 0 0 0 0 0 0 0 0 0
0 0 0 0 0 0 0 0 0 0 0 0 0 0 0 0 0 0 0 0 0 0 0 0 0 0 0 0 0 0 0 0 0 0 0 0 0 0 0 0 0 0 0
0 0 0 0 0 0 0 0 0 0 0 0 0 0 0 0 0 0 0 0 0 0 0 0 0 0 0 0 0 0 0 0 0 0 0 0 0 -0 0 0 0 0 0
0 0 0 0 0 0 0 0 0 0 0 0 0 0 0 0 0 0 0 0 0 0 0 0 0 0 0 0 0 0 0 0 0 0 0 0 0 0 0 0 0 0 0
0 0 0 0 0 0 0 0 0 0 0 0 0 0 0 0 0 0 0 0 0 0 0 0 0 0 0 0 0 0 0 0 0 0 0 0 0 0 -0 -0 0 0 0
0 0 0 0 0 0 0 0 0 0 0 0 0 0 0 0 0 0 0 0 0 0 0 0 0 0 0 0 0 0 0 0 0 0 0 0 0 0 -0 -0 -0 0 -0
0 0 0 0 0 0 0 0 0 0 0 0 0 0 0 0 0 0 0 0 0 0 0 0 0 0 0 0 0 0 0 0 0 0 0 0 0 -0 -0 -0 -0 -0 -0
0 0 0 0 0 0 0 0 0 0 0 0 0 0 0 0 0 0 0 0 0 0 0 0 0 0 0 0 0 0 0 0 0 0 0 0 -0 -0 -0 -0 -0 -0 -0
0 0 0 0 0 0 0 0 0 0 0 0 0 0 0 0 0 0 0 0 0 0 0 0 0 0 0 0 0 0 0 0 0 0 -0 -0 -0 -0 -0 -0 -0 -0 -0
0 0 0 0 0 0 0 0 0 0 0 0 0 0 0 0 0 0 0 0 0 0 0 0 0 0 0 0 0 0 0 -0 -0 -0 -0 -0 -0 -0 -0 -0 -0 -0 -0
0 0 0 0 0 0 0 0 0 0 0 0 0 0 0 0 0 0 0 0 0 0 0 0 0 0 0 0 0 -0 -0 -0 -0 -0 -0 -0 -0 -0 -0 -0 -0 -0 -0
Wind_Speed_500mb
75 73 71 65 60 54 54 50 46 42 39 40 38 40 42 43 45 48 49 50 53 55 57 61 63 63 65 68 70 71 72 65 63 106 103 105 111 104 107 111 104 91 93
79 75 75 68 64 63 60 55 49 46 43 43 42 44 45 46 48 52 53 53 56 58 60 64 66 66 69 70 72 73 73 72 65 81 102 105 108 111 113 106 109 88 73
89 83 79 75 73 70 64 59 54 51 48 48 48 47 47 48 52 55 56 56 58 60 63 66 67 68 70 71 73 75 75 70 68 68 89 95 98 87 95 101 92 96 82
98 96 87 82 77 71 64 59 57 54 53 52 50 50 50 52 55 55 56 57 60 64 66 66 67 68 71 73 73 72 68 62 64 69 78 86 83 88 76 81 107 86 84
108 104 96 89 78 69 64 62 59 58 55 51 52 52 52 54 54 54 56 60 64 66 66 67 69 70 70 71 70 63 59 68 71 74 82 78 80 78 85 82 82 107 105
114 110 100 93 82 74 65 62 60 58 54 52 52 50 52 53 53 54 59 62 65 66 68 69 69 70 73 73 72 60 57 60 71 76 77 74 89 80 75 79 96 104 85
113 110 104 96 87 76 67 64 62 57 53 50 49 50 51 53 53 56 60 62 63 65 67 68 69 70 73 72 75 71 60 55 57 67 82 78 75 62 92 100 85 95 104
110 108 103 99 88 77 70 67 59 56 52 48 48 49 50 52 54 57 59 60 62 62 64 67 69 70 67 63 63 65 68 68 73 67 61 63 78 87 86 95 99 109 108
105 106 103 95 85 78 75 65 59 54 49 47 46 47 47 49 53 55 58 58 58 61 63 65 65 66 62 54 58 69 79 75 52 57 70 75 78 81 81 90 95 89 98
97 99 98 86 79 77 68 61 55 49 47 45 44 44 45 48 50 53 53 55 61 63 64 64 62 55 52 55 64 69 68 79 90 85 87 91 80 78 71 73 75 76 81
84 83 80 77 73 67 62 57 50 47 43 42 41 41 42 44 46 48 48 51 55 60 63 66 65 52 55 54 54 66 75 78 85 88 89 84 78 73 70 66 63 67 74
71 69 72 72 68 64 58 51 48 42 41 39 36 36 37 40 42 44 48 50 46 47 55 60 60 50 51 56 62 74 67 64 74 78 78 75 73 71 67 65 62 63 65
65 69 69 66 62 57 51 47 42 40 38 34 32 32 34 36 38 43 46 45 44 40 47 45 56 63 73 79 68 63 64 64 68 71 71 70 69 68 64 66 63 64 68
72 71 68 63 59 52 47 43 40 36 32 31 30 31 32 35 39 40 43 50 49 48 50 56 64 67 60 59 59 57 58 60 64 65 65 67 68 67 66 69 72 71 76
76 72 66 60 53 48 42 37 33 31 29 26 27 28 31 36 36 31 30 36 38 40 50 57 55 55 56 55 54 55 59 62 62 62 66 70 71 70 70 71 74 75 77
77 71 66 58 52 46 41 35 33 29 23 21 24 28 31 33 32 31 24 24 34 40 46 52 54 52 54 57 60 60 60 63 60 63 67 69 73 76 78 77 76 76 79
72 68 63 53 46 42 39 34 27 21 17 18 21 24 28 30 33 36 29 33 34 41 44 47 48 49 51 54 58 61 66 64 59 63 68 73 77 78 78 80 81 80 83
64 58 55 42 43 41 37 30 22 16 14 15 20 22 24 29 32 36 40 40 35 34 40 45 47 47 50 55 58 62 66 65 60 65 71 75 78 79 81 82 79 80 87
61 58 43 45 43 40 33 25 18 13 11 12 15 21 24 27 29 33 36 40 41 40 41 44 45 46 50 54 58 61 64 64 61 68 72 78 82 80 84 80 82 86 90
59 47 47 46 46 38 30 21 15 10 8 9 14 21 25 25 26 25 30 36 38 41 44 47 47 48 51 56 61 63 66 64 63 70 77 81 83 82 85 85 90 93 93
59 55 48 49 42 33 24 17 10 5 4 11 17 21 29 29 29 31 33 35 40 42 44 48 50 50 53 57 62 65 69 68 66 75 80 85 86 83 81 88 95 96 97
60 56 54 45 37 30 22 15 9 3 5 11 16 20 22 27 30 32 34 36 39 42 44 49 52 51 53 57 63 66 69 69 70 76 84 87 85 81 90 99 100 100 102
60 58 52 44 35 28 22 15 8 2 5 10 13 17 21 24 28 32 36 39 41 43 44 48 53 52 51 57 60 62 65 66 72 77 86 83 81 90 96 99 100 103 103
60 52 46 41 35 27 21 13 6 4 8 11 14 18 21 25 29 33 38 41 44 45 45 48 50 51 56 60 58 59 56 64 69 76 79 77 85 92 99 102 102 102 95
57 52 44 37 32 27 19 11 6 4 7 12 16 19 22 27 30 35 39 42 45 47 48 48 49 52 57 59 58 55 57 56 65 71 68 73 87 91 95 94 96 95 96
56 49 44 38 32 24 17 10 4 5 9 13 17 21 25 29 34 38 41 44 47 48 50 50 51 54 58 57 58 55 55 58 66 67 66 80 82 87 93 99 100 97 98
Wind_Direction_500mb
230 231 234 234 236 239 242 244 248 252 255 262 271 278 284 288 291 292 296 299 302 304 305 305 307 306 307 308 308 306 305 303 289 308 313 317 317 319 318 320 321 319 319
233 234 235 236 236 239 242 246 248 252 255 263 270 277 283 287 289 289 292 295 298 300 302 302 305 306 307 307 305 305 306 307 297 298 310 313 315 316 317 318 318 318 311
234 235 235 237 237 238 241 246 248 252 257 263 268 275 281 285 286 287 290 292 295 297 300 302 306 306 306 304 304 306 307 305 302 298 302 307 308 311 314 316 314 311 312
235 235 235 237 238 241 242 245 248 252 256 262 268 272 279 284 285 287 289 291 293 297 300 302 304 303 303 305 307 307 306 301 301 298 298 300 304 310 310 308 309 310 310
235 235 235 237 238 241 242 244 246 248 254 259 264 270 278 283 286 287 288 292 294 297 300 303 304 303 303 305 305 304 299 300 301 298 298 300 303 306 307 308 303 305 310
234 235 234 236 235 237 240 243 246 246 251 258 263 270 278 283 284 286 290 293 296 299 303 302 302 302 304 305 304 298 294 294 294 297 299 298 300 303 305 304 308 308 307
234 234 233 234 233 234 237 241 242 244 249 257 263 272 278 281 284 288 290 292 297 300 301 301 303 305 306 306 305 307 301 301 294 295 294 295 296 300 306 307 305 303 302
235 233 231 231 230 231 235 238 240 241 247 254 263 271 276 280 285 287 291 294 296 299 301 304 303 304 306 307 310 307 303 302 304 299 290 292 298 302 299 298 300 298 302
236 233 229 228 227 228 232 235 234 238 245 254 264 270 274 280 284 289 292 293 298 302 305 302 304 308 310 311 304 302 308 309 293 295 297 294 295 301 300 302 304 305 305
236 232 229 225 224 227 229 229 230 237 247 256 262 269 276 281 287 290 294 302 304 306 307 308 308 305 308 307 306 308 300 300 306 306 298 301 306 308 305 302 304 304 308
236 229 222 218 219 220 220 222 230 239 246 254 262 269 277 283 287 292 302 304 306 307 305 308 310 311 310 307 304 296 297 305 302 299 304 310 312 311 309 308 306 307 307
229 216 209 209 210 211 214 221 229 237 247 254 262 270 277 284 295 304 305 304 307 306 308 313 317 313 308 308 305 308 308 304 305 308 312 316 317 317 315 313 311 309 307
210 202 201 202 204 207 214 221 228 239 246 254 261 268 279 292 301 306 310 311 314 314 317 312 301 303 306 309 312 312 311 311 313 318 321 322 322 322 318 317 316 317 316
199 196 195 197 200 205 212 220 231 238 245 252 263 277 292 301 308 313 315 321 327 329 320 308 305 308 310 313 313 316 318 322 325 323 323 324 326 327 322 324 323 325 323
195 191 192 195 200 206 211 220 228 234 243 257 273 289 302 312 317 323 323 324 326 310 299 308 317 320 322 321 323 324 325 329 329 327 328 329 329 328 325 327 326 326 324
188 188 191 195 199 205 211 213 219 229 245 267 292 309 314 316 320 322 326 328 302 311 318 321 324 324 324 326 329 329 329 331 331 330 331 332 331 328 327 327 328 327 324
192 191 193 192 199 206 207 210 214 221 249 281 299 308 313 318 320 319 320 322 329 323 322 321 322 324 327 327 327 328 329 332 330 331 332 332 331 329 328 327 328 327 325
188 194 190 193 201 202 202 203 208 225 257 284 298 305 314 319 321 320 319 325 325 320 320 323 327 328 328 327 327 327 328 329 328 330 332 333 333 330 329 328 327 326 326
188 184 194 194 195 194 192 193 202 220 246 276 300 315 324 326 324 320 318 320 325 327 326 326 326 326 328 327 326 326 326 329 329 330 333 333 333 330 328 328 327 328 328
182 195 189 191 187 182 184 189 199 222 259 302 320 319 322 324 314 313 318 321 324 325 326 324 324 324 326 327 327 326 327 329 329 331 331 332 331 328 327 327 328 327 327
187 182 184 178 175 175 177 181 192 217 303 327 325 326 323 325 327 328 327 325 322 324 324 321 322 323 325 326 327 326 328 327 327 329 329 330 330 327 325 325 326 327 325
180 176 172 170 169 167 166 170 168 139 351 334 330 325 320 325 326 325 322 323 321 323 321 319 320 321 323 325 326 326 326 327 328 329 329 328 328 327 326 326 326 325 323
171 166 164 163 162 159 157 151 140 75 347 337 327 321 323 324 323 323 324 323 323 323 321 318 319 321 323 324 326 326 323 325 327 328 328 327 327 331 331 329 327 323 316
164 161 159 157 152 150 146 131 112 23 348 333 330 330 329 329 329 328 325 324 324 322 322 321 321 322 323 325 326 326 322 323 324 328 327 324 327 330 328 324 319 314 311
159 155 153 149 145 140 128 119 89 20 340 335 334 333 333 333 331 329 326 326 323 323 324 323 324 324 325 326 327 325 322 321 326 330 328 327 326 326 323 318 315 310 310
151 150 146 142 135 126 117 107 94 15 347 337 332 332 335 334 332 331 329 327 325 325 326 328 327 327 328 329 328 326 325 327 329 334 333 327 327 325 321 318 319 313 313
Wind_Speed_850mb
75 73 71 65 60 54 54 50 46 42 39 40 38 40 42 43 45 48 49 50 53 55 57 61 63 63 65 68 70 71 72 65 63 106 103 105 111 104 107 111 104 91 93
79 75 75 68 64 63 60 55 49 46 43 43 42 44 45 46 48 52 53 53 56 58 60 64 66 66 69 70 72 73 73 72 65 81 102 105 108 111 113 106 109 88 73
89 83 79 75 73 70 64 59 54 51 48 48 48 47 47 48 52 55 56 56 58 60 63 66 67 68 70 71 73 75 75 70 68 68 89 95 98 87 95 101 92 96 82
98 96 87 82 77 71 64 59 57 54 53 52 50 50 50 52 55 55 56 57 60 64 66 66 67 68 71 73 73 72 68 62 64 69 78 86 83 88 76 81 107 86 84
108 104 96 89 78 69 64 62 59 58 55 51 52 52 52 54 54 54 56 60 64 66 66 67 69 70 70 71 70 63 59 68 71 74 82 78 80 78 85 82 82 107 105
114 110 100 93 82 74 65 62 60 58 54 52 52 50 52 53 53 54 59 62 65 66 68 69 69 70 73 73 72 60 57 60 71 76 77 74 89 80 75 79 96 104 85
113 110 104 96 87 76 67 64 62 57 53 50 49 50 51 53 53 56 60 62 63 65 67 68 69 70 73 72 75 71 60 55 57 67 82 78 75 62 92 100 85 95 104
110 108 103 99 88 77 70 67 59 56 52 48 48 49 50 52 54 57 59 60 62 62 64 67 69 70 67 63 63 65 68 68 73 67 61 63 78 87 86 95 99 109 108
105 106 103 95 85 78 75 65 59 54 49 47 46 47 47 49 53 55 58 58 58 61 63 65 65 66 62 54 58 69 79 75 52 57 70 75 78 81 81 90 95 89 98
97 99 98 86 79 77 68 61 55 49 47 45 44 44 45 48 50 53 53 55 61 63 64 64 62 55 52 55 64 69 68 79 90 85 87 91 80 78 71 73 75 76 81
84 83 80 77 73 67 62 57 50 47 43 42 41 41 42 44 46 48 48 51 55 60 63 66 65 52 55 54 54 66 75 78 85 88 89 84 78 73 70 66 63 67 74
71 69 72 72 68 64 58 51 48 42 41 39 36 36 37 40 42 44 48 50 46 47 55 60 60 50 51 56 62 74 67 64 74 78 78 75 73 71 67 65 62 63 65
65 69 69 66 62 57 51 47 42 40 38 34 32 32 34 36 38 43 46 45 44 40 47 45 56 63 73 79 68 63 64 64 68 71 71 70 69 68 64 66 63 64 68
72 71 68 63 59 52 47 43 40 36 32 31 30 31 32 35 39 40 43 50 49 48 50 56 64 67 60 59 59 57 58 60 64 65 65 67 68 67 66 69 72 71 76
76 72 66 60 53 48 42 37 33 31 29 26 27 28 31 36 36 31 30 36 38 40 50 57 55 55 56 55 54 55 59 62 62 62 66 70 71 70 70 71 74 75 77
77 71 66 58 52 46 41 35 33 29 23 21 24 28 31 33 32 31 24 24 34 40 46 52 54 52 54 57 60 60 60 63 60 63 67 69 73 76 78 77 76 76 79
72 68 63 53 46 42 39 34 27 21 17 18 21 24 28 30 33 36 29 33 34 41 44 47 48 49 51 54 58 61 66 64 59 63 68 73 77 78 78 80 81 80 83
64 58 55 42 43 41 37 30 22 16 14 15 20 22 24 29 32 36 40 40 35 34 40 45 47 47 50 55 58 62 66 65 60 65 71 75 78 79 81 82 79 80 87
61 58 43 45 43 40 33 25 18 13 11 12 15 21 24 27 29 33 36 40 41 40 41 44 45 46 50 54 58 61 64 64 61 68 72 78 82 80 84 80 82 86 90
59 47 47 46 46 38 30 21 15 10 8 9 14 21 25 25 26 25 30 36 38 41 44 47 47 48 51 56 61 63 66 64 63 70 77 81 83 82 85 85 90 93 93
59 55 48 49 42 33 24 17 10 5 4 11 17 21 29 29 29 31 33 35 40 42 44 48 50 50 53 57 62 65 69 68 66 75 80 85 86 83 81 88 95 96 97
60 56 54 45 37 30 22 15 9 3 5 11 16 20 22 27 30 32 34 36 39 42 44 49 52 51 53 57 63 66 69 69 70 76 84 87 85 81 90 99 100 100 102
60 58 52 44 35 28 22 15 8 2 5 10 13 17 21 24 28 32 36 39 41 43 44 48 53 52 51 57 60 62 65 66 72 77 86 83 81 90 96 99 100 103 103
60 52 46 41 35 27 21 13 6 4 8 11 14 18 21 25 29 33 38 41 44 45 45 48 50 51 56 60 58 59 56 64 69 76 79 77 85 92 99 102 102 102 95
57 52 44 37 32 27 19 11 6 4 7 12 16 19 22 27 30 35 39 42 45 47 48 48 49 52 57 59 58 55 57 56 65 71 68 73 87 91 95 94 96 95 96
56 49 44 38 32 24 17 10 4 5 9 13 17 21 25 29 34 38 41 44 47 48 50 50 51 54 58 57 58 55 55 58 66 67 66 80 82 87 93 99 100 97 98
Wind_Direction_850mb
230 231 234 234 236 239 242 244 248 252 255 262 271 278 284 288 291 292 296 299 302 304 305 305 307 306 307 308 308 306 305 303 289 308 313 317 317 319 318 320 321 319 319
233 234 235 236 236 239 242 246 248 252 255 263 270 277 283 287 289 289 292 295 298 300 302 302 305 306 307 307 305 305 306 307 297 298 310 313 315 316 317 318 318 318 311
234 235 235 237 237 238 241 246 248 252 257 263 268 275 281 285 286 287 290 292 295 297 300 302 306 306 306 304 304 306 307 305 302 298 302 307 308 311 314 316 314 311 312
235 235 235 237 238 241 242 245 248 252 256 262 268 272 279 284 285 287 289 291 293 297 300 302 304 303 303 305 307 307 306 301 301 298 298 300 304 310 310 308 309 310 310
235 235 235 237 238 241 242 244 246 248 254 259 264 270 278 283 286 287 288 292 294 297 300 303 304 303 303 305 305 304 299 300 301 298 298 300 303 306 307 308 303 305 310
234 235 234 236 235 237 240 243 246 246 251 258 263 270 278 283 284 286 290 293 296 299 303 302 302 302 304 305 304 298 294 294 294 297 299 298 300 303 305 304 308 308 307
234 234 233 234 233 234 237 241 242 244 249 257 263 272 278 281 284 288 290 292 297 300 301 301 303 305 306 306 305 307 301 301 294 295 294 295 296 300 306 307 305 303 302
235 233 231 231 230 231 235 238 240 241 247 254 263 271 276 280 285 287 291 294 296 299 301 304 303 304 306 307 310 307 303 302 304 299 290 292 298 302 299 298 300 298 302
236 233 229 228 227 228 232 235 234 238 245 254 264 270 274 280 284 289 292 293 298 302 305 302 304 308 310 311 304 302 308 309 293 295 297 294 295 301 300 302 304 305 305
236 232 229 225 224 227 229 229 230 237 247 256 262 269 276 281 287 290 294 302 304 306 307 308 308 305 308 307 306 308 300 300 306 306 298 301 306 308 305 302 304 304 308
236 229 222 218 219 220 220 222 230 239 246 254 262 269 277 283 287 292 302 304 306 307 305 308 310 311 310 307 304 296 297 305 302 299 304 310 312 311 309 308 306 307 307
229 216 209 209 210 211 214 221 229 237 247 254 262 270 277 284 295 304 305 304 307 306 308 313 317 313 308 308 305 308 308 304 305 308 312 316 317 317 315 313 311 309 307
210 202 201 202 204 207 214 221 228 239 246 254 261 268 279 292 301 306 310 311 314 314 317 312 301 303 306 309 312 312 311 311 313 318 321 322 322 322 318 317 316 317 316
199 196 195 197 200 205 212 220 231 238 245 252 263 277 292 301 308 313 315 321 327 329 320 308 305 308 310 313 313 316 318 322 325 323 323 324 326 327 322 324 323 325 323
195 191 192 195 200 206 211 220 228 234 243 257 273 289 302 312 317 323 323 324 326 310 299 308 317 320 322 321 323 324 325 329 329 327 328 329 329 328 325 327 326 326 324
188 188 191 195 199 205 211 213 219 229 245 267 292 309 314 316 320 322 326 328 302 311 318 321 324 324 324 326 329 329 329 331 331 330 331 332 331 328 327 327 328 327 324
192 191 193 192 199 206 207 210 214 221 249 281 299 308 313 318 320 319 320 322 329 323 322 321 322 324 327 327 327 328 329 332 330 331 332 332 331 329 328 327 328 327 325
188 194 190 193 201 202 202 203 208 225 257 284 298 305 314 319 321 320 319 325 325 320 320 323 327 328 328 327 327 327 328 329 328 330 332 333 333 330 329 328 327 326 326
188 184 194 194 195 194 192 193 202 220 246 276 300 315 324 326 324 320 318 320 325 327 326 326 326 326 328 327 326 326 326 329 329 330 333 333 333 330 328 328 327 328 328
182 195 189 191 187 182 184 189 199 222 259 302 320 319 322 324 314 313 318 321 324 325 326 324 324 324 326 327 327 326 327 329 329 331 331 332 331 328 327 327 328 327 327
187 182 184 178 175 175 177 181 192 217 303 327 325 326 323 325 327 328 327 325 322 324 324 321 322 323 325 326 327 326 328 327 327 329 329 330 330 327 325 325 326 327 325
180 176 172 170 169 167 166 170 168 139 351 334 330 325 320 325 326 325 322 323 321 323 321 319 320 321 323 325 326 326 326 327 328 329 329 328 328 327 326 326 326 325 323
171 166 164 163 162 159 157 151 140 75 347 337 327 321 323 324 323 323 324 323 323 323 321 318 319 321 323 324 326 326 323 325 327 328 328 327 327 331 331 329 327 323 316
164 161 159 157 152 150 146 131 112 23 348 333 330 330 329 329 329 328 325 324 324 322 322 321 321 322 323 325 326 326 322 323 324 328 327 324 327 330 328 324 319 314 311
159 155 153 149 145 140 128 119 89 20 340 335 334 333 333 333 331 329 326 326 323 323 324 323 324 324 325 326 327 325 322 321 326 330 328 327 326 326 323 318 315 310 310
151 150 146 142 135 126 117 107 94 15 347 337 332 332 335 334 332 331 329 327 325 325 326 328 327 327 328 329 328 326 325 327 329 334 333 327 327 325 321 318 319 313 313